TimeCEST,TemperatureF,Dew PointF,Humidity,Sea Level PressureIn,VisibilityMPH,Wind Direction,Wind SpeedMPH,Gust SpeedMPH,PrecipitationIn,Events,Conditions,WindDirDegrees,DateUTC
12:00 AM,69.8,55.4,60,30.06,-9999.0,East,6.9,-,N/A,,Clear,80,2013-06-06 22:00:00
12:30 AM,68.0,55.4,64,30.06,-9999.0,ENE,6.9,-,N/A,,Clear,70,2013-06-06 22:30:00
1:00 AM,66.2,55.4,68,30.06,-9999.0,ENE,4.6,-,N/A,,Clear,70,2013-06-06 23:00:00
1:30 AM,66.2,55.4,68,30.06,-9999.0,NNE,4.6,-,N/A,,Clear,30,2013-06-06 23:30:00
2:00 AM,64.4,55.4,73,30.06,-9999.0,NE,5.8,-,N/A,,Clear,40,2013-06-07 00:00:00
2:30 AM,62.6,53.6,72,30.06,-9999.0,NE,5.8,-,N/A,,Clear,40,2013-06-07 00:30:00
3:00 AM,62.6,55.4,77,30.06,-9999.0,NNE,6.9,-,N/A,,Clear,30,2013-06-07 01:00:00
3:30 AM,60.8,53.6,77,30.06,-9999.0,NE,8.1,-,N/A,,Clear,40,2013-06-07 01:30:00
4:00 AM,62.6,55.4,77,30.06,-9999.0,NNE,6.9,-,N/A,,Clear,30,2013-06-07 02:00:00
4:30 AM,60.8,53.6,77,30.06,-9999.0,NNE,6.9,-,N/A,,Clear,20,2013-06-07 02:30:00
5:00 AM,60.8,53.6,77,30.06,-9999.0,NE,8.1,-,N/A,,Clear,40,2013-06-07 03:00:00
5:30 AM,59.0,53.6,82,30.06,-9999.0,NNE,6.9,-,N/A,,Clear,30,2013-06-07 03:30:00
6:00 AM,59.0,53.6,82,30.06,-9999.0,NNE,5.8,-,N/A,,Clear,30,2013-06-07 04:00:00
6:30 AM,59.0,53.6,82,30.06,-9999.0,NNE,6.9,-,N/A,,Clear,30,2013-06-07 04:30:00
7:00 AM,59.0,53.6,82,30.06,-9999.0,NNE,5.8,-,N/A,,Clear,30,2013-06-07 05:00:00
7:30 AM,62.6,53.6,72,30.06,-9999.0,NNE,8.1,-,N/A,,Clear,30,2013-06-07 05:30:00
8:00 AM,64.4,55.4,73,30.06,-9999.0,NE,5.8,-,N/A,,Clear,40,2013-06-07 06:00:00
8:30 AM,66.2,53.6,64,30.06,-9999.0,ENE,4.6,-,N/A,,Clear,60,2013-06-07 06:30:00
9:00 AM,68.0,53.6,60,30.06,-9999.0,East,6.9,-,N/A,,Clear,90,2013-06-07 07:00:00
9:30 AM,69.8,51.8,53,30.06,-9999.0,ESE,8.1,-,N/A,,Clear,110,2013-06-07 07:30:00
10:00 AM,71.6,53.6,53,30.09,-9999.0,East,8.1,-,N/A,,Clear,90,2013-06-07 08:00:00
10:30 AM,73.4,51.8,47,30.09,-9999.0,East,8.1,-,N/A,,Clear,80,2013-06-07 08:30:00
11:00 AM,75.2,51.8,44,30.09,-9999.0,East,10.4,-,N/A,,Clear,80,2013-06-07 09:00:00
11:30 AM,75.2,50.0,41,30.09,-9999.0,ENE,8.1,-,N/A,,Clear,70,2013-06-07 09:30:00
12:00 PM,77.0,53.6,44,30.09,-9999.0,ENE,10.4,-,N/A,,Clear,70,2013-06-07 10:00:00
12:30 PM,77.0,51.8,41,30.09,-9999.0,ENE,12.7,-,N/A,,Clear,70,2013-06-07 10:30:00
1:00 PM,78.8,48.2,34,30.09,-9999.0,East,13.8,-,N/A,,Clear,80,2013-06-07 11:00:00
1:30 PM,78.8,48.2,34,30.06,-9999.0,ENE,13.8,-,N/A,,Clear,70,2013-06-07 11:30:00
2:00 PM,78.8,51.8,39,30.06,-9999.0,ENE,13.8,-,N/A,,Clear,60,2013-06-07 12:00:00
2:30 PM,78.8,48.2,34,30.06,-9999.0,ENE,16.1,-,N/A,,Clear,70,2013-06-07 12:30:00
3:00 PM,78.8,46.4,32,30.06,-9999.0,ENE,16.1,-,N/A,,Clear,70,2013-06-07 13:00:00
3:30 PM,78.8,48.2,34,30.06,-9999.0,ENE,16.1,-,N/A,,Clear,60,2013-06-07 13:30:00
4:00 PM,80.6,50.0,34,30.06,-9999.0,ENE,16.1,-,N/A,,Clear,60,2013-06-07 14:00:00
4:30 PM,80.6,50.0,34,30.06,-9999.0,ENE,15.0,-,N/A,,Clear,60,2013-06-07 14:30:00
5:00 PM,80.6,48.2,32,30.06,-9999.0,ENE,13.8,-,N/A,,Clear,70,2013-06-07 15:00:00
5:30 PM,80.6,48.2,32,30.06,-9999.0,East,13.8,-,N/A,,Clear,80,2013-06-07 15:30:00
6:00 PM,80.6,48.2,32,30.04,-9999.0,East,12.7,-,N/A,,Clear,80,2013-06-07 16:00:00
6:30 PM,80.6,48.2,32,30.04,-9999.0,East,12.7,-,N/A,,Clear,80,2013-06-07 16:30:00
7:00 PM,80.6,51.8,37,30.04,-9999.0,NE,10.4,-,N/A,,Clear,50,2013-06-07 17:00:00
7:30 PM,78.8,51.8,39,30.04,-9999.0,ENE,9.2,-,N/A,,Clear,60,2013-06-07 17:30:00
8:00 PM,78.8,53.6,42,30.04,-9999.0,ENE,8.1,-,N/A,,Clear,70,2013-06-07 18:00:00
8:30 PM,77.0,53.6,44,30.04,-9999.0,ENE,8.1,-,N/A,,Clear,60,2013-06-07 18:30:00
9:00 PM,75.2,55.4,50,30.04,-9999.0,NE,8.1,-,N/A,,Clear,40,2013-06-07 19:00:00
9:30 PM,73.4,53.6,50,30.04,-9999.0,NE,8.1,-,N/A,,Clear,40,2013-06-07 19:30:00
10:00 PM,69.8,53.6,56,30.04,-9999.0,NE,10.4,-,N/A,,Clear,40,2013-06-07 20:00:00
10:30 PM,68.0,53.6,60,30.04,-9999.0,NE,9.2,-,N/A,,Clear,40,2013-06-07 20:30:00
11:00 PM,68.0,53.6,60,30.06,-9999.0,NE,9.2,-,N/A,,Clear,40,2013-06-07 21:00:00
11:30 PM,66.2,51.8,60,30.06,-9999.0,NE,10.4,-,N/A,,Clear,40,2013-06-07 21:30:00